Location: ??????
(38.1303°N, 24.0039°E)
Time: 05:01:21
(UTC+00:00)

CZ-4C R/B - Pass Details

Date: 20 June 2021
Orbit: 606 x 1395 km, 63.4° (Epoch: 25 July)

Event Time Altitude Azimuth Distance (km) Brightness Sun altitude
Exits shadow 01:11:18 28° 191° (S) 1,271 2.7 -17.2°
Maximum altitude 01:13:43 63° 118° (ESE) 797 2.1 -16.9°
Drops below altitude 10° 01:19:06 10° 38° (NE) 2,422 6.0 -16.2°
Sets 01:21:49 0° 36° (NE) 3,487 7.2 -15.8°
